Salina, KS

5:39 AM CDT on April 25, 2017 (GMT -0500)
Salina Municipal

Weather History for KSLN - October, 2012

Change the Weather History Date:

Friday, October 5, 2012

  Actual Average Record
Temperature  
Mean Temperature 47 °F 62 °F  
Max Temperature 54 °F 73 °F 96 °F (1956)
Min Temperature 40 °F 50 °F 33 °F (1953)
Degree Days  
Heating Degree Days 18 6  
Month to date heating degree days 38 26  
Since 1 July heating degree days 73 78  
Cooling Degree Days 0 2  
Month to date cooling degree days 0 12  
Year to date cooling degree days 2037 1624  
Moisture  
Dew Point 32 °F    
Average Humidity 56    
Maximum Humidity 70    
Minimum Humidity 41    
Precipitation  
Precipitation T in 0.08 in 1.33 in (1984)
Month to date precipitation 0.01 0.44  
Year to date precipitation 16.40 27.48  
Sea Level Pressure  
Sea Level Pressure 30.31 in    
Wind  
Wind Speed 11 mph (NNE)    
Max Wind Speed 23 mph    
Max Gust Speed 29 mph    
Visibility 10 miles    
Events      
T = Trace of Precipitation, MM = Missing Value Source: NWS Daily Summary

Daily Weather History Graph

Daily Weather History Graph

Search for Another Location

Airport or City:

Trip Planner

Search our weather history database for the weather conditions in past years. The results will help you decide how hot, cold, wet, or windy it might be!

Date:

Astronomy

Oct. 05, 2012 Rise Set
Actual Time 7:30 AM CDT 7:06 PM CDT
Civil Twilight 7:04 AM CDT 7:32 PM CDT
Nautical Twilight 6:33 AM CDT 8:03 PM CDT
Astronomical Twilight 6:02 AM CDT 8:34 PM CDT
Moon 10:33 PM CDT (10/5) 12:36 PM CDT (10/5)
Length of Visible Light 12h 28m
Length of Day
11h 35m
Waning Gibbous, 74% of the Moon is Illuminated
Oct 5
Waning Gibbous
Oct 8
Last Quarter
Oct 15
New
Oct 21
First Quarter
Oct 29
Full

Hourly Weather History & Observations

Time (CDT) Temp. Windchill Dew Point Humidity Pressure Visibility Wind Dir Wind Speed Gust Speed Precip Events Conditions
12:53 AM 52.0 °F - 33.1 °F 49% 30.30 in 10.0 mi North 12.7 mph - N/A   Mostly Cloudy
1:53 AM 51.1 °F - 33.1 °F 50% 30.30 in 10.0 mi NNE 9.2 mph - N/A   Overcast
2:53 AM 50.0 °F - 33.8 °F 54% 30.28 in 10.0 mi NNE 10.4 mph - N/A   Overcast
3:53 AM 50.0 °F - 32.0 °F 50% 30.28 in 10.0 mi NE 9.2 mph - N/A   Overcast
4:53 AM 48.9 °F - 32.0 °F 52% 30.28 in 10.0 mi NNE 13.8 mph - N/A   Overcast
5:53 AM 48.9 °F - 32.0 °F 52% 30.29 in 10.0 mi NNE 8.1 mph - N/A   Overcast
6:53 AM 48.0 °F - 30.9 °F 52% 30.29 in 10.0 mi NE 8.1 mph 16.1 mph N/A   Overcast
7:53 AM 48.0 °F - 30.9 °F 52% 30.27 in 10.0 mi NE 6.9 mph - N/A   Overcast
8:53 AM 48.0 °F - 30.9 °F 52% 30.29 in 10.0 mi NNE 9.2 mph - N/A   Overcast
9:53 AM 50.0 °F - 33.1 °F 52% 30.31 in 10.0 mi NNE 11.5 mph - N/A   Mostly Cloudy
10:53 AM 50.0 °F - 30.0 °F 46% 30.33 in 10.0 mi NNE 12.7 mph - N/A   Mostly Cloudy
11:53 AM 52.0 °F - 28.0 °F 40% 30.34 in 10.0 mi NNE 21.9 mph 26.5 mph N/A   Mostly Cloudy
12:53 PM 54.0 °F - 32.0 °F 43% 30.33 in 10.0 mi NNE 16.1 mph 25.3 mph N/A   Mostly Cloudy
1:53 PM 48.9 °F - 30.0 °F 48% 30.33 in 10.0 mi North 20.7 mph - N/A   Overcast
2:53 PM 46.9 °F - 34.0 °F 61% 30.32 in 10.0 mi North 20.7 mph - N/A   Mostly Cloudy
3:53 PM 50.0 °F - 32.0 °F 50% 30.31 in 10.0 mi North 18.4 mph - N/A   Scattered Clouds
4:53 PM 51.1 °F - 33.1 °F 50% 30.30 in 10.0 mi North 5.8 mph - N/A   Clear
5:53 PM 51.1 °F - 33.1 °F 50% 30.30 in 10.0 mi North 6.9 mph - N/A   Clear
6:53 PM 50.0 °F - 32.0 °F 50% 30.30 in 10.0 mi NE 4.6 mph - N/A   Clear
7:53 PM 48.0 °F - 30.0 °F 50% 30.32 in 10.0 mi NNE 10.4 mph - N/A   Clear
8:53 PM 45.0 °F 43.5 °F 30.9 °F 58% 30.33 in 10.0 mi North 3.5 mph - N/A   Clear
9:53 PM 41.0 °F 36.4 °F 30.9 °F 67% 30.35 in 10.0 mi WNW 6.9 mph - N/A   Clear
10:53 PM 41.0 °F 37.1 °F 32.0 °F 70% 30.35 in 10.0 mi WNW 5.8 mph - N/A   Clear
11:53 PM 43.0 °F 39.5 °F 34.0 °F 71% 30.35 in 10.0 mi WNW 5.8 mph - N/A   Clear